Location: Sungai Jaoh
(2.9167°N, 113.9167°E)
Time: 05:42:57
(UTC+00:00)

Cosmos 1782 - Pass Details

Date: 30 November 2020
Orbit: 537 x 551 km, 82.5° (Epoch: 25 January)

Event Time Altitude Azimuth Distance (km) Brightness Sun altitude
Rises 21:46:17 0° 355° (N) 2,710 6.1 -7.4°
Reaches altitude 10° 21:48:26 10° 354° (N) 1,819 5.2 -6.9°
Maximum altitude 21:52:26 82° 267° (W) 559 2.8 -5.9°
Drops below altitude 10° 21:56:27 10° 179° (S) 1,822 5.8 -5.0°
Sets 21:58:37 0° 178° (S) 2,716 6.7 -4.5°
